sat.trackr.live / text

‹ back to catalog

STARLINK-3837

NORAD 52358 · 2022-045AD

PAYLOAD ACTIVE UNKNOWN

§ Identity

Operator
Country
US
Launch date
2022-04-29
Launch site
AFETR
Launch vehicle
Mass (kg)
RCS (m²)

Purposes: comms

External: N2YO · Heavens-Above · Gunter

§ Orbital elements

Epoch: 2026-05-25T04:05:26.683008Z

Period
95.44 min
Inclination
53.2116°
Eccentricity
0.0001230
Mean motion
15.08837911 rev/d
Perigee alt
538.9 km
Apogee alt
540.6 km
Semi-major
6,917.9 km
B*
9.2949e-7
RAAN
215.7866°
Arg perigee
87.7305°
Mean anomaly
272.3827°
Rev number
22,733

§ Raw data

STARLINK-38371 52358U 22045AD  26145.17044772 -.00000273  00000+0  92949-6 0  99972 52358  53.2116 215.7866 0001230  87.7305 272.3827 15.08837911227335

JSON: /api/v1/satellites/52358 · /tle

For live sub-satellite position, see the globe view (requires WebGL).

§ Visibility from observer

Set your observer location to see the next 7 days of passes ≥ 10°. The values pass through the URL so the page stays shareable.

No JS? Fill the form by hand. The geolocation button needs JavaScript.